Location: Unspecified
(0.0000°N, 0.0000°E)
Time: 06:35:54
(UTC+00:00)

Courier 1B Rocket - Pass Details

Date: 28 November 2019
Orbit: 920 x 1202 km, 28.2° (Epoch: 10 December)

Event Time Altitude Azimuth Distance (km) Brightness Sun altitude
Rises 18:32:37 0° 305° (NW) 3,900 8.7 -10.4°
Reaches altitude 10° 18:35:19 10° 307° (NW) 2,981 8.0 -11.0°
Maximum altitude 18:42:44 72° 30° (NNE) 1,219 5.3 -12.7°
Drops below altitude 10° 18:50:31 10° 114° (ESE) 3,124 7.2 -14.5°
Enters shadow 18:52:02 - 115° (ESE) 3,630 7.6 -14.9°
Sets 18:53:25 0° 116° (ESE) 4,096 - -15.2°
